Regional Weather Roundup
Issued by NWS

Home | Current Version | Previous Version | Graphics & Text | Print | Product List | Glossary On
Versions: 1 2 3 4 5 6 7 8 9 10 11 12 13 14 15 16 17 18 19 20 21 22 23 24 25 26 27 28 29 30 31 32 33 34 35 36 37 38 39 40 41 42 43 44 45 46 47 48 49 50
000
ASUS43 KMPX 300701
RWRMN
WEATHER ROUNDUP FOR MINNESOTA
NATIONAL WEATHER SERVICE TWIN CITIES/CHANHASSEN MN
200 AM CDT TUE SEP 30 2014


NOTE: "FAIR" INDICATES FEW OR NO CLOUDS BELOW 12,000 FEET WITH NO
SIGNIFICANT WEATHER AND/OR OBSTRUCTIONS TO VISIBILITY. N/A MEANS
CURRENT SKY AND/OR WEATHER CONDITIONS ARE NOT AVAILABLE.

MNZ060>063-068>070-300800-
   Twin Cities Metro

CITY           SKY/WX    TMP DP  RH WIND       PRES   REMARKS
TWIN CITIES    PTCLDY    43  39  86 E9        30.11S
ST PAUL        PTCLDY    43  39  86 E10       30.13S
CRYSTAL        CLOUDY    45  40  82 NE10      30.10S
BLAINE         CLOUDY    45  43  93 NE10      30.12S
LAKEVILLE      CLEAR     39  39 100 E6        30.10F
EDEN PRAIRIE   CLEAR     44  41  89 E10       30.09F
SOUTH ST PAUL  CLEAR     43  39  86 E5        30.12S
LAKE ELMO      CLOUDY    41  39  93 E10       30.13S
$$
MNZ001>005-007-008-013>017-022>024-027-028-300800-
   Northwest Minnesota

CITY           SKY/WX    TMP DP  RH WIND       PRES   REMARKS
BEMIDJI        CLEAR     45  42  90 SE8       30.09S
HALLOCK        PTCLDY    46  43  87 SE10      30.06S
ROSEAU         CLEAR     41  36  81 E6        30.10S
WARROAD        CLOUDY    43  37  81 SE9       30.11F
THIEF RVR FALL CLEAR     43  41  93 E8        30.07F
CROOKSTON      CLEAR     45  43  93 SE6       30.07F
FOSSTON        CLEAR     41  39  93 SE7       30.08F
DETROIT LAKES  CLOUDY    45  41  87 SE13G20   30.07F
PARK RAPIDS    CLOUDY    43  41  93 SE12      30.09F
MAHNOMEN       FAIR      44  41  91 SE7       30.07F
$$
MNZ006-009>011-018-025>026-300800-
   North Central Minnesota

CITY           SKY/WX    TMP DP  RH WIND       PRES   REMARKS
BAUDETTE       CLOUDY    42  40  92 SE7       30.13F
FLAG ISLAND    CLOUDY    46  43  87 SE12      30.10F
INTL FALLS     CLOUDY    42  39  89 SE5       30.15S
WASKISH        CLOUDY    43  43 100 CALM      30.12F
BIG FORK       CLOUDY    46  41  81 SE5       30.14S
LONGVILLE      CLOUDY    43  39  87 SE3       30.12S
GRAND RAPIDS   CLOUDY    41  37  87 SE9       30.14S
CRANE LAKE     CLOUDY    41  39  93 E3        30.18R
ORR            CLOUDY    43  37  81 SE6       30.13S
COOK           CLOUDY    43  39  87 CALM      30.15S
WALKER         CLOUDY    45  41  88 SE7       30.11S
$$
MNZ012-019>021-037-300800-
   Northeast Minnesota

CITY           SKY/WX    TMP DP  RH WIND       PRES   REMARKS
DULUTH         CLOUDY    44  39  82 E12       30.15S
ELY            CLOUDY    41  37  87 SE7       30.15F
HIBBING        CLOUDY    43  38  82 S7        30.16S
EVELETH        CLOUDY    43  39  87 SE7       30.16S
DULUTH HARBOR  CLOUDY    46  43  87 E15G23    30.18S
TWO HARBORS    CLOUDY    43  37  81 E9        30.15S
SILVER BAY     PTCLDY    41  39  93 NE7       30.16S
GRAND MARAIS     N/A     43  36  76 NE6       30.19F
G MARAIS ARPRT CLOUDY    34  30  86 NE5       30.17F WCI  30
$$
MNZ029>031-032-039>041-046>048-054>057-064-300800-
   West Central Minnesota

CITY           SKY/WX    TMP DP  RH WIND       PRES   REMARKS
FERGUS FALLS   MOCLDY    45  39  81 SE10      30.06F
WHEATON        CLEAR     43  39  87 E12       30.06S
MORRIS         CLEAR     43  41  93 E8        30.04F
ALEXANDRIA     CLOUDY    42  40  92 E8        30.09S
ELBOW LAKE     FAIR      44  41  91 E16       30.05F
WADENA         CLOUDY    43  39  87 E9        30.08F
GLENWOOD       CLOUDY    43  41  93 E8G17     30.08S
APPLETON       CLEAR     46  43  87 E10       30.05S
BENSON         CLEAR     45  43  93 SE7       30.06F
ORTONVILLE     CLEAR     46  43  87 SE12G18   30.04S
MADISON        CLEAR     50  46  87 E8        30.05R
WILLMAR        FAIR      45  41  87 E10       30.08F
$$
MNZ033>034-036-042>043-049>051-058-059-300800-
   Central Minnesota

CITY           SKY/WX    TMP DP  RH WIND       PRES   REMARKS
ST CLOUD       CLOUDY    45  40  82 E8        30.11S
SAUK CENTRE    CLOUDY    41  40  95 E10G16    30.10S
PAYNESVILLE    CLOUDY    41  40  95 NE12      30.10S
AITKIN         CLOUDY    45  37  76 E7        30.13S
PINE RIVER     CLOUDY    43  39  87 E9        30.15S
BRAINERD       CLOUDY    41  38  89 E9        30.13S
STAPLES        CLOUDY    43  39  87 E6        30.11R
LONG PRAIRIE   CLOUDY    39  37  93 E7        30.10F
LITTLE FALLS   CLOUDY    41  37  87 E7        30.12R
LITCHFIELD     CLEAR     43  43 100 E9        30.10S
BUFFALO        CLOUDY    43  39  88 NE10      30.12F
MAPLE LAKE     MOCLDY    43  41  93 E13       30.11F
$$
MNZ037-044-045-052-053-300800-
   East Central Minnesota

CITY           SKY/WX    TMP DP  RH WIND       PRES   REMARKS
PRINCETON      CLOUDY    45  39  81 NE10      30.13S
MORA           CLOUDY    39  36  87 E3        30.16S
CAMBRIDGE      CLOUDY    45  36  70 NE5       30.12S
RUSH CITY      CLOUDY    42  39  88 NE10      30.14S
MOOSE LAKE     CLOUDY    41  37  87 NE6       30.14S
HINCKLEY       CLOUDY    43  41  93 NE5       30.15S
CLOQUET        CLOUDY    43  39  87 E6        30.15S
MCGREGOR       CLOUDY    43  37  81 E10       30.15F
$$
MNZ071>073-080-081-089-090-097-098-300800-
   Southwest Minnesota

CITY           SKY/WX    TMP DP  RH WIND       PRES   REMARKS
MONTEVIDEO     CLEAR     45  45 100 SE10      30.07S
GRANITE FALLS  CLEAR     46  43  90 E9        30.07S
CANBY          CLEAR     47  46  95 E6        30.04F
MARSHALL       CLEAR     48  43  81 SE10      30.03F
REDWOOD FALLS  CLEAR     46  44  93 E9        30.06F
OLIVIA         CLEAR     43  41  93 E8        30.06F
PIPESTONE      MOCLDY    52  46  82 SE13G18   30.00F
WINDOM         CLEAR     48  46  93 E6        30.05S
WORTHINGTON    CLOUDY    52  46  82 E9        30.04S
JACKSON        CLEAR     48  45  87 E6        30.05F
TRACY          CLEAR     49  47  92 E7        30.04F
SLAYTON        MOCLDY    49  47  93 E8        30.04F
$$
MNZ065>067-074>077-082>085-091>093-300800-
   South Central Minnesota

CITY           SKY/WX    TMP DP  RH WIND       PRES   REMARKS
MANKATO        CLEAR     46  39  76 E9        30.08R
NEW ULM        CLEAR     46  45  93 E9        30.07S
ST JAMES       CLEAR     48  45  87 E6        30.07S
FAIRMONT       CLEAR     48  43  81 E3        30.06S
GLENCOE        CLEAR     44  40  87 NE5       30.09S
FARIBAULT      CLEAR     45  39  81 NE5       30.09R
OWATONNA       CLEAR     45  41  87 E8        30.08R
WASECA         CLEAR     43  37  81 NE10      30.09R
ALBERT LEA     CLEAR     46  45  93 E7        30.06S
$$
MNZ078>079-086>088-094>096-300800-
   Southeast Minnesota

CITY           SKY/WX    TMP DP  RH WIND       PRES   REMARKS
ROCHESTER      CLEAR     43  41  93 NE10      30.08S
RED WING       CLOUDY    43  39  87 E7        30.11S
STANTON        CLEAR     42  39  91 NE3       30.09S
DODGE CENTER   PTCLDY    45  43  93 E10       30.07S
WINONA         PTCLDY    43  39  87 E8        30.12R
AUSTIN         CLEAR     45  43  93 E5        30.06S
PRESTON        MOCLDY    43  42  95 NE7       30.08S
$$
ABBREVIATIONS USED IN REMARKS
   TC - TEMPERATURES IN CELSIUS
  WCI - WIND CHILL INDEX
   HX - HEAT INDEX
  VSB - VISIBILITY
$$



USA.gov is the U.S. government's official web portal to all federal, state and local government web resources and services.